Location: Greenspot (historical)
(34.0858°N, 117.1109°W)
Time: 05:53:38
(UTC+00:00)

Cosmos 1933 Rocket - Visible Passes

Search period start: 13 July 2024 00:00
Search period end: 23 July 2024 00:00
Orbit: 604 x 625 km, 82.5° (Epoch: 12 July)

Date Brightness Start Highest point End Pass type
(mag) Time Alt. Az. Time Alt. Az. Time Alt. Az.
18 Jul 6.5 12:01:02 10° SE 12:03:42 16° E 12:06:24 10° NE visible
19 Jul 5.7 12:15:41 10° SSE 12:19:31 30° E 12:23:23 10° NNE visible
22 Jul 6.4 11:27:37 10° ESE 11:30:03 15° E 11:32:30 10° NE visible
